Retour au catalogue

BREEZE-KM R/B

ActifPO
NORAD 40556·ROCKET BODY·🇷🇺 Russia

Lancé Mar 31, 2015 depuis Plesetsk Cosmodrome

Loading…

Prochains Passages (prochaines 24 heures)

TLE

FraisSource: Space-Track

Époque: Sep 14, 2026, 15:42 UTC

1 40556U 15020E   26257.65437022  .00000026  00000-0  60430-4 0  9994
2 40556  82.4913 146.3550 0214456 198.7626 160.5485 12.80561932535609

Suivez BREEZE-KM R/B en temps réel avec AllMySat

Download on the App Store